Hourly Data Report for November 26, 2018

TORONTO CITY
ONTARIO
Current Station Operator: ECCC - MSC

43°40'00.000" N
79°24'00.000" W
112.50 m
6158355
71508
XTO

Download Data

Hourly Data (November 2018)
Hourly Data Report for November 26, 2018
TIME
LST
Temp Definition
°C
Dew Point Definition
°C
Rel Hum Definition
%
Precip. Amount Definition
mm

Wind Dir Definition
10's deg

Wind Spd Definition
km/h
Visibility Definition
km
Stn Press Definition
kPa
Hmdx Definition


Wind Chill Definition


Weather Definition


00:00 5.2 -0.6 66 0.0 LegendMM LegendMM   99.72     LegendNANA
01:00 5.2 -0.4 67 0.0 LegendMM LegendMM   99.62     LegendNANA
02:00 4.9 -0.4 68 0.0 LegendMM LegendMM   99.53     LegendNANA
03:00 4.8 0.9 76 0.0 LegendMM LegendMM   99.48     LegendNANA
04:00 4.9 1.1 77 0.0 LegendMM LegendMM   99.42     LegendNANA
05:00 5.0 2.0 81 0.0 LegendMM LegendMM   99.34     LegendNANA
06:00 5.0 2.3 83 0.0 LegendMM LegendMM   99.08     LegendNANA
07:00 5.1 2.3 83 0.6 LegendMM LegendMM   99.01     LegendNANA
08:00 4.9 3.2 89 2.5 LegendMM LegendMM   98.86     LegendNANA
09:00 4.8 3.5 91 2.4 LegendMM LegendMM   98.71     LegendNANA
10:00 4.9 3.7 92 3.2 LegendMM LegendMM   98.60     LegendNANA
11:00 5.1 3.7 91 2.1 LegendMM LegendMM   98.49     LegendNANA
12:00 5.3 4.1 92 1.5 LegendMM LegendMM   98.32     LegendNANA
13:00 5.3 4.1 92 1.7 LegendMM LegendMM   98.22     LegendNANA
14:00 5.4 4.3 92 2.1 LegendMM LegendMM   98.18     LegendNANA
15:00 5.7 4.6 93 1.9 LegendMM LegendMM   98.16     LegendNANA
16:00 6.4 5.1 92 2.2 LegendMM LegendMM   98.16     LegendNANA
17:00 6.4 5.3 92 3.0 LegendMM LegendMM   98.18     LegendNANA
18:00 6.0 4.8 92 0.7 LegendMM LegendMM   98.23     LegendNANA
19:00 4.8 3.5 91 0.8 LegendMM LegendMM   98.28     LegendNANA
20:00 3.9 2.6 91 0.5 LegendMM LegendMM   98.29     LegendNANA
21:00 3.7 2.3 91 0.5 LegendMM LegendMM   98.27     LegendNANA
22:00 3.2 1.6 89 0.8 LegendMM LegendMM   98.25     LegendNANA
23:00 3.0 1.4 89 0.0 LegendMM LegendMM   98.26     LegendNANA

Notes on Data Quality.

Legend

  • E = Estimated
  • M = Missing
  • NA = Not Available*
  • [empty] = Indicates an unobserved value
Date modified: